OPS 4682 DEB, 38407

Orbit data source: Space-Track

OPS 4682 DEB, 38407 is space debris in LEO originally from a launch on Sat, 03 Apr 1965 UTC launched from the Air Force Western Test Range (AFWTR). Debris objects in space refer to the collection of defunct objects orbiting the Earth. Examples of debris include non-operational satellites, rocket bodies, and fragments generated from explosions, collisions, or faulty payload assembly.

Loading next visibility...
Identifier
38407, 1965-027DL
Orbit
LEO
Country
Flag of USUS
Related business
Manufacturer
Unknown
Mission
Spacecraft
Bus & Motor
Unknown
Mass
Unknown
Launch date (UTC)
1965-04-03 (61 years ago)
Launch vehicle
Unknown
Launch site
Air Force Western Test Range (AFWTR)
Object type
Payload
Rocket body
Debris
Shape & HBR
Unknown shape, 0.1 m
Radar Cross Section
Small (<0.1 m²)

Expand to show TLE details & history
Last TLE update: 4 days ago

TLE from 4 days ago
0 OPS 4682 DEB
1 38407U 65027DL  26065.13126148  .00000918  00000-0  31572-2 0  9995
2 38407  90.2466   5.1536 0030654  43.7102 316.6438 12.96912973287913
Epoch: 2026-03-06T03:09Z
TLE epoch observation values (Epoch: 2026-03-06T03:09:00.991Z)
Latitude
-0.00004°
Longitude
154.0278°
Altitude
1,260.06 km
Speed
7.233 km/s
True Right ascension
00h 20m 36s
True Declination
0° 00' 00"
Sunlit
Object was in daylight at epoch
Visualization orbit readout
Latitude
Unknown
Longitude
Unknown
Altitude
Unknown
Speed
Unknown
Apparent Right ascension
Unknown
Apparent Declination
Unknown
Sunlit
N/A
Visualization observer readout
Local Sidereal Time
19:30:55
Azimuth
Unknown
Elevation
Unknown
Doppler factor
Unknown
Orbital elements
Apogee altitude
1,294.786 km
Perigee altitude
1,247.889 km
Semi-major axis
7,649.474 km
Eccentricity
0.00307
Inclination
90.2466°
RAAN
5.1536°
Arg. of periapsis
43.7102°
True anomaly
316.40197°
Mean anomaly
316.6438°
Eccentric anomaly
316.52295°
Mean motion
3.24411 °/min
Orbital period
110.97 mins
BSTAR
0.0031572
Loading maneuver chart data...
Computing Atmospheric mass density...
Loading historical data...
Loading historical data...
Loading historical data...
Loading historical data...
Loading historical data...
Loading historical data...
Loading historical data...

Documentation

Showing up to 5 results
|